TimeEDT,TemperatureF,Dew PointF,Humidity,Sea Level PressureIn,VisibilityMPH,Wind Direction,Wind SpeedMPH,Gust SpeedMPH,PrecipitationIn,Events,Conditions,WindDirDegrees,DateUTC
12:53 AM,44.1,41.0,89,29.80,8.0,SW,8.1,-,0.03,Rain,Light Rain,230,2013-03-12 04:53:00
1:10 AM,44.6,41.0,87,29.78,9.0,WSW,5.8,-,0.00,Rain,Light Rain,240,2013-03-12 05:10:00
1:53 AM,43.0,41.0,93,29.81,4.0,WSW,8.1,-,0.00,Rain,Light Rain,240,2013-03-12 05:53:00
2:05 AM,42.8,39.2,87,29.79,4.0,West,18.4,26.5,0.01,Rain,Light Rain,270,2013-03-12 06:05:00
2:20 AM,41.0,35.6,81,29.80,10.0,West,13.8,24.2,0.01,,Overcast,270,2013-03-12 06:20:00
2:53 AM,41.0,35.1,79,29.82,10.0,West,11.5,-,0.01,Rain,Light Rain,260,2013-03-12 06:53:00
3:08 AM,41.0,35.6,81,29.80,10.0,WSW,11.5,17.3,0.00,,Overcast,250,2013-03-12 07:08:00
3:53 AM,39.9,35.1,83,29.83,10.0,WSW,11.5,17.3,0.00,,Overcast,250,2013-03-12 07:53:00
4:53 AM,39.0,36.0,89,29.84,10.0,WSW,8.1,-,0.01,Rain,Light Rain,250,2013-03-12 08:53:00
5:20 AM,39.2,35.6,87,29.82,10.0,WSW,8.1,-,0.00,,Overcast,240,2013-03-12 09:20:00
5:53 AM,39.0,33.1,79,29.85,10.0,West,9.2,-,0.00,,Overcast,280,2013-03-12 09:53:00
6:53 AM,37.9,30.9,76,29.88,10.0,WSW,9.2,-,N/A,,Overcast,250,2013-03-12 10:53:00
7:53 AM,37.9,30.9,76,29.89,10.0,West,6.9,-,N/A,,Overcast,270,2013-03-12 11:53:00
8:06 AM,37.4,30.2,75,29.87,10.0,West,9.2,-,N/A,,Overcast,260,2013-03-12 12:06:00
8:53 AM,37.0,30.9,79,29.90,10.0,WSW,10.4,-,N/A,,Overcast,240,2013-03-12 12:53:00
9:36 AM,37.4,30.2,75,29.89,10.0,WSW,8.1,-,N/A,,Overcast,240,2013-03-12 13:36:00
9:53 AM,37.0,32.0,82,29.92,10.0,WSW,12.7,18.4,N/A,,Overcast,250,2013-03-12 13:53:00
10:05 AM,35.6,30.2,81,29.90,10.0,West,16.1,-,N/A,,Overcast,270,2013-03-12 14:05:00
10:53 AM,37.0,30.0,76,29.94,10.0,WSW,15.0,19.6,N/A,,Overcast,250,2013-03-12 14:53:00
11:35 AM,37.4,30.2,75,29.91,10.0,West,12.7,18.4,N/A,,Overcast,260,2013-03-12 15:35:00
11:53 AM,34.0,30.0,85,29.94,4.0,WSW,12.7,23.0,0.00,Snow,Light Snow,250,2013-03-12 15:53:00
12:21 PM,35.6,30.2,81,29.91,10.0,WSW,17.3,21.9,0.00,,Overcast,250,2013-03-12 16:21:00
12:37 PM,35.6,28.4,75,29.91,10.0,West,18.4,24.2,0.00,,Overcast,260,2013-03-12 16:37:00
12:53 PM,37.0,28.0,70,29.94,10.0,West,18.4,29.9,0.00,,Overcast,260,2013-03-12 16:53:00
1:53 PM,36.0,27.0,70,29.95,10.0,West,13.8,24.2,N/A,,Overcast,260,2013-03-12 17:53:00
2:45 PM,37.4,26.6,65,29.91,10.0,West,13.8,23.0,N/A,,Overcast,260,2013-03-12 18:45:00
2:53 PM,37.0,27.0,67,29.94,10.0,West,16.1,20.7,N/A,,Overcast,260,2013-03-12 18:53:00
3:42 PM,37.4,26.6,65,29.91,10.0,WSW,10.4,21.9,N/A,,Overcast,250,2013-03-12 19:42:00
3:53 PM,37.0,27.0,67,29.95,10.0,West,15.0,20.7,N/A,,Overcast,260,2013-03-12 19:53:00
4:01 PM,37.4,26.6,65,29.91,10.0,WSW,10.4,-,N/A,,Overcast,250,2013-03-12 20:01:00
4:53 PM,37.9,27.0,65,29.94,10.0,West,13.8,18.4,N/A,,Overcast,260,2013-03-12 20:53:00
5:53 PM,37.0,26.1,65,29.96,10.0,West,16.1,24.2,N/A,,Overcast,260,2013-03-12 21:53:00
6:53 PM,36.0,26.1,67,29.98,10.0,West,13.8,20.7,N/A,,Overcast,260,2013-03-12 22:53:00
7:53 PM,36.0,27.0,70,30.00,10.0,WSW,10.4,16.1,N/A,,Overcast,240,2013-03-12 23:53:00
8:53 PM,36.0,27.0,70,30.01,10.0,WSW,9.2,-,N/A,,Overcast,250,2013-03-13 00:53:00
9:53 PM,36.0,27.0,70,30.02,10.0,WSW,6.9,-,N/A,,Overcast,240,2013-03-13 01:53:00
11:53 PM,34.0,26.1,73,30.01,10.0,SW,3.5,-,N/A,,Clear,220,2013-03-13 03:53:00